Flag for Brazil Weather past 2 weeks in Maceió, Alagoas, Brazil

Now
66 °F

Passing clouds.


Feels Like: 66 °F
Forecast: 72 / 80 °F
Wind: No wind

Location: Maceio Aeroporto

Current Time: Jul 25, 2014 at 10:27:43 PM

Latest Report: Jul 25, 2014 at 10:00 PM


Visibility: N/A

Pressure: 30.07 "Hg

Humidity: 94%

Dew point: 64 °F

Location of MaceióLocation

Historic Weather in Maceió — Graph

°F

Maceió temperature yesterday

Maximum temperature yesterday: 75 °F (at 11:00 AM)
Minimum temperature yesterday: 63 °F (at 11:00 PM)
Average temperature yesterday: 69 °F

Past Weeks' High & Low Weather Summary

 TemperatureHumidityPressure
High79 °F (Jul 12, 11:00 AM)100% (Jul 11, 8:00 AM)30.15 "Hg (Jul 11, 8:00 AM)
Low63 °F (Jul 21, 2:00 AM)54% (Jul 21, 12:00 PM)29.98 "Hg (Jul 11, 2:00 PM)
Average70 °F85%30.08 "Hg
* Reported Jul 10 9:00 PM — Jul 25 9:00 PM, Maceió, Weather by CustomWeather, © 2014

Note: Actual official high and low records may vary slightly from our data, if they occured in-between our weather recording intervals... More about our weather records

Advertising

Maceió weather history for previous 24 hours

 ConditionsComfort  
Time TempWeatherWind HumidityBarometerVisibility
9:00 PM
Jul 25
66 °FPassing clouds.3 mph94%30.04 "Hg5 mi
8:00 PM68 °FPassing clouds.6 mph94%30.04 "Hg5 mi
7:00 PM68 °FScattered showers. Passing clouds.5 mph94%30.01 "HgN/A
6:00 PM68 °FScattered showers. Passing clouds.6 mph88%30.01 "HgN/A
5:00 PM68 °FLight rain. Broken clouds.7 mph94%30.01 "HgN/A
4:00 PM73 °FScattered showers. Scattered clouds.17 mph69%29.98 "HgN/A
3:00 PM70 °FLight rain. Partly sunny.12 mph88%30.01 "Hg4 mi
2:00 PM70 °FLight rain. Fog.13 mph94%30.01 "Hg2 mi
1:00 PM75 °FScattered showers. Broken clouds.12 mph78%30.01 "HgN/A
12:00 PM73 °FScattered showers. Broken clouds.10 mph83%30.04 "Hg4 mi
11:00 AM72 °FScattered showers. Partly sunny.7 mph83%N/A5 mi
10:00 AM68 °FFog.7 mph100%30.07 "Hg2 mi
9:00 AM66 °FDrizzle. Fog.6 mph100%N/A2 mi
8:00 AM66 °FDrizzle. Partly sunny.5 mph100%30.04 "Hg1 mi
7:00 AM66 °FDrizzle. Fog.3 mph94%30.04 "Hg1 mi
6:00 AM64 °FLight rain. Fog.3 mph100%30.01 "Hg1 mi
5:00 AM64 °FLight rain. Passing clouds.No wind100%30.01 "Hg4 mi
4:00 AM64 °FPassing clouds.2 mph100%30.01 "HgN/A
3:00 AM63 °FPassing clouds.3 mph100%30.01 "HgN/A
2:00 AM63 °FPassing clouds.2 mph100%30.01 "HgN/A
1:00 AM63 °FPassing clouds.3 mph100%30.04 "HgN/A
12:00 AM63 °FPassing clouds.5 mph100%30.07 "HgN/A
11:00 PM
Jul 24
63 °FPassing clouds.3 mph100%30.07 "HgN/A
10:00 PM64 °FPassing clouds.3 mph100%30.07 "HgN/A
Weather by CustomWeather, © 2014

See weather overviewHow to use our weather pages